User: anonymous   Login
Location: Fours
(44.3167°N, 6.7000°E)
Time: 02:01:51
(UTC+00:00)
Language:

Lacrosse 4 Rocket - Orbit

View from above orbital plane
View from above orbital plane
View from above satellite
View from above satellite

Ground track
Ground track

The orbit data is extracted from the following two-line orbital elements,

1 26474U 00047B   22018.80368527  .00000808  00000-0  79468-4 0  9990
2 26474  67.9937 277.8186 0060874 278.4999  80.9247 14.96384319166133
Epoch (UTC): 18 January 2022 19:17:18
Eccentricity: 0.0060874
inclination: 67.9937°
perigee height: 536 km
apogee height: 620 km
right ascension of ascending node: 277.8186°
argument of perigee: 278.4999°
revolutions per day: 14.96384319
mean anomaly at epoch: 80.9247°
orbit number at epoch: 16613

The dashed part of the orbit path shows where the satellite is in the earth's shadow,  

DLR